• In Portugal
  • List of Countries
  • For 7 days
  • Water Temperature
  • Satellite Maps
  • Weather Map
  • Weather Widgets
  • user-avatar
    Login

    Hourly Weather Setserleg

    Today, 18 September, Tuesday

    Time Temperature Precipitation Wind Pressure Humidity
    00:00 +4°C° 0 mm 3 mps 610 mmHg 43%
    01:00 +4°C° 0 mm 3 mps 610 mmHg 39%
    02:00 +4°C° 0 mm 3 mps 609 mmHg 38%
    03:00 +4°C° 0 mm 3 mps 609 mmHg 38%
    04:00 +5°C° 0 mm 2 mps 609 mmHg 38%
    05:00 +5°C° 0 mm 2 mps 609 mmHg 40%
    06:00 +5°C° 0 mm 2 mps 609 mmHg 42%
    07:00 +5°C° 0 mm 2 mps 610 mmHg 46%
    08:00 +8°C° 0 mm 2 mps 610 mmHg 42%
    09:00 +10°C° 0 mm 3 mps 611 mmHg 38%
    10:00 +12°C° 0 mm 3 mps 612 mmHg 33%
    11:00 +13°C° 0 mm 3 mps 612 mmHg 32%
    12:00 +14°C° 0 mm 4 mps 612 mmHg 31%
    13:00 +17°C° 0 mm 4 mps 612 mmHg 29%
    14:00 +17°C° 0 mm 4 mps 611 mmHg 32%
    15:00 +15°C° 0 mm 4 mps 611 mmHg 35%
    16:00 +15°C° 0 mm 4 mps 611 mmHg 38%
    17:00 +13°C° 0 mm 3 mps 610 mmHg 43%
    18:00 +11°C° 0 mm 3 mps 610 mmHg 47%
    19:00 +8°C° 0 mm 2 mps 609 mmHg 52%
    20:00 +8°C° 0 mm 2 mps 609 mmHg 53%
    21:00 +7°C° 0 mm 2 mps 609 mmHg 54%
    22:00 +6°C° 0 mm 2 mps 609 mmHg 55%
    23:00 +6°C° 0 mm 2 mps 608 mmHg 56%

    Tomorrow, 19 September, Wednesday

    Time Temperature Precipitation Wind Pressure Humidity
    00:00 +6°C° 0 mm 2 mps 608 mmHg 56%
    01:00 +6°C° 0 mm 2 mps 608 mmHg 56%
    02:00 +5°C° 0.2 mm 2 mps 608 mmHg 63%
    03:00 +6°C° 0.2 mm 1 mps 608 mmHg 70%
    04:00 +6°C° 0.2 mm 1 mps 608 mmHg 76%
    05:00 +4°C° 0.1 mm 2 mps 608 mmHg 78%
    06:00 +4°C° 0.1 mm 2 mps 608 mmHg 80%
    07:00 +4°C° 0.1 mm 2 mps 608 mmHg 81%
    08:00 +3°C° 0.7 mm 4 mps 609 mmHg 81%
    09:00 +1°C° 0.7 mm 5 mps 609 mmHg 82%
    10:00 +1°C° 0.7 mm 6 mps 609 mmHg 82%
    11:00 +1°C° 0.6 mm 6 mps 609 mmHg 82%
    12:00 +1°C° 0.6 mm 6 mps 610 mmHg 81%
    13:00 -1°C° 0.6 mm 6 mps 610 mmHg 81%
    14:00 -1°C° 0.3 mm 6 mps 610 mmHg 81%
    15:00 0°C° 0.3 mm 5 mps 610 mmHg 80%
    16:00 0°C° 0.3 mm 5 mps 611 mmHg 80%
    17:00 -1°C° 0.3 mm 4 mps 611 mmHg 83%
    18:00 -1°C° 0.3 mm 3 mps 611 mmHg 86%
    19:00 -2°C° 0.3 mm 2 mps 611 mmHg 89%
    20:00 -2°C° 0.4 mm 2 mps 612 mmHg 89%
    21:00 -2°C° 0.4 mm 2 mps 612 mmHg 90%
    22:00 0°C° 0.4 mm 1 mps 613 mmHg 91%
    23:00 -1°C° 0.3 mm 1 mps 613 mmHg 91%

    Day after tomorrow, 20 September, Thursday

    Time Temperature Precipitation Wind Pressure Humidity
    00:00 -1°C° 0.3 mm 1 mps 613 mmHg 91%
    01:00 -1°C° 0.3 mm 1 mps 613 mmHg 91%
    02:00 -4°C° 0.1 mm 2 mps 613 mmHg 91%
    03:00 -4°C° 0.1 mm 2 mps 613 mmHg 92%
    04:00 -4°C° 0.1 mm 2 mps 613 mmHg 92%
    05:00 -5°C° 0 mm 3 mps 613 mmHg 91%
    06:00 -5°C° 0 mm 3 mps 614 mmHg 89%
    07:00 -5°C° 0 mm 3 mps 614 mmHg 87%
    08:00 -5°C° 0 mm 5 mps 614 mmHg 80%
    09:00 -4°C° 0 mm 6 mps 614 mmHg 74%
    10:00 -2°C° 0 mm 7 mps 615 mmHg 67%
    11:00 -2°C° 0 mm 7 mps 615 mmHg 66%
    12:00 -1°C° 0 mm 7 mps 615 mmHg 65%
    13:00 -1°C° 0 mm 8 mps 614 mmHg 63%
    14:00 -1°C° 0 mm 7 mps 614 mmHg 64%
    15:00 -1°C° 0 mm 7 mps 614 mmHg 64%
    16:00 -1°C° 0 mm 7 mps 614 mmHg 65%
    17:00 -2°C° 0 mm 6 mps 614 mmHg 68%
    18:00 -4°C° 0 mm 5 mps 614 mmHg 72%
    19:00 -4°C° 0 mm 4 mps 614 mmHg 76%
    20:00 -4°C° 0 mm 4 mps 614 mmHg 75%
    21:00 -5°C° 0 mm 4 mps 615 mmHg 75%
    22:00 -5°C° 0 mm 4 mps 615 mmHg 75%
    23:00 -5°C° 0 mm 3 mps 615 mmHg 75%

    21 September, Friday

    Time Temperature Precipitation Wind Pressure Humidity
    00:00 -6°C° 0 mm 3 mps 615 mmHg 74%
    01:00 -6°C° 0 mm 3 mps 615 mmHg 74%
    02:00 -6°C° 0 mm 3 mps 615 mmHg 74%
    03:00 -5°C° 0 mm 2 mps 615 mmHg 73%
    04:00 -6°C° 0 mm 2 mps 615 mmHg 72%
    05:00 -5°C° 0 mm 2 mps 615 mmHg 71%
    06:00 -5°C° 0 mm 2 mps 615 mmHg 70%
    07:00 -5°C° 0 mm 2 mps 616 mmHg 68%
    08:00 -3°C° 0 mm 2 mps 616 mmHg 63%
    09:00 -1°C° 0 mm 2 mps 616 mmHg 57%
    10:00 +2°C° 0 mm 2 mps 616 mmHg 52%
    11:00 +4°C° 0 mm 2 mps 616 mmHg 50%
    12:00 +4°C° 0 mm 3 mps 616 mmHg 48%
    13:00 +5°C° 0 mm 3 mps 616 mmHg 46%
    14:00 +5°C° 0 mm 3 mps 616 mmHg 48%
    15:00 +6°C° 0 mm 2 mps 616 mmHg 51%
    16:00 +6°C° 0 mm 2 mps 616 mmHg 53%
    17:00 +4°C° 0 mm 2 mps 615 mmHg 56%
    18:00 +3°C° 0 mm 1 mps 615 mmHg 60%
    19:00 +1°C° 0 mm 1 mps 615 mmHg 63%
    20:00 +1°C° 0 mm 1 mps 615 mmHg 64%
    21:00 +1°C° 0 mm 1 mps 615 mmHg 65%
    22:00 0°C° 0 mm 1 mps 616 mmHg 65%
    23:00 -2°C° 0 mm 2 mps 616 mmHg 66%

    22 September, Saturday

    Time Temperature Precipitation Wind Pressure Humidity
    00:00 -2°C° 0 mm 2 mps 616 mmHg 66%
    01:00 -2°C° 0 mm 2 mps 616 mmHg 66%
    02:00 0°C° 0 mm 1 mps 616 mmHg 65%
    03:00 0°C° 0 mm 1 mps 616 mmHg 65%
    04:00 0°C° 0 mm 1 mps 616 mmHg 65%
    05:00 0°C° 0 mm 1 mps 616 mmHg 64%
    06:00 0°C° 0 mm 1 mps 617 mmHg 63%
    07:00 +1°C° 0 mm 1 mps 617 mmHg 62%
    08:00 +3°C° 0 mm 1 mps 618 mmHg 59%
    09:00 +5°C° 0 mm 1 mps 618 mmHg 55%
    10:00 +7°C° 0 mm 1 mps 619 mmHg 51%
    11:00 +8°C° 0 mm 1 mps 619 mmHg 49%
    12:00 +8°C° 0 mm 0 mps 619 mmHg 46%
    13:00 +9°C° 0 mm 0 mps 619 mmHg 43%
    14:00 +9°C° 0 mm 0 mps 619 mmHg 45%
    15:00 +9°C° 0 mm 0 mps 619 mmHg 47%
    16:00 +10°C° 0 mm 1 mps 618 mmHg 49%
    17:00 +8°C° 0 mm 1 mps 618 mmHg 55%
    18:00 +6°C° 0 mm 1 mps 617 mmHg 61%
    19:00 +4°C° 0 mm 1 mps 616 mmHg 67%
    20:00 +3°C° 0 mm 1 mps 616 mmHg 68%
    21:00 +3°C° 0 mm 1 mps 617 mmHg 69%
    22:00 +2°C° 0 mm 1 mps 617 mmHg 70%
    23:00 +2°C° 0 mm 1 mps 617 mmHg 70%

    23 September, Sunday

    Time Temperature Precipitation Wind Pressure Humidity
    00:00 +2°C° 0 mm 1 mps 616 mmHg 70%
    01:00 +2°C° 0 mm 1 mps 616 mmHg 70%
    02:00 +2°C° 0 mm 1 mps 616 mmHg 69%
    03:00 +2°C° 0 mm 1 mps 616 mmHg 69%
    04:00 +1°C° 0 mm 1 mps 616 mmHg 69%
    05:00 +2°C° 0 mm 1 mps 616 mmHg 68%
    06:00 +2°C° 0 mm 1 mps 616 mmHg 67%
    07:00 +2°C° 0 mm 1 mps 617 mmHg 66%
    08:00 +5°C° 0 mm 1 mps 617 mmHg 60%
    09:00 +7°C° 0 mm 1 mps 617 mmHg 54%
    10:00 +9°C° 0 mm 1 mps 618 mmHg 48%
    11:00 +10°C° 0 mm 1 mps 618 mmHg 45%
    12:00 +12°C° 0 mm 1 mps 618 mmHg 42%
    13:00 +12°C° 0 mm 0 mps 618 mmHg 39%
    14:00 +13°C° 0 mm 1 mps 618 mmHg 42%
    15:00 +13°C° 0 mm 1 mps 617 mmHg 45%
    16:00 +13°C° 0 mm 1 mps 617 mmHg 48%
    17:00 +11°C° 0 mm 1 mps 616 mmHg 54%
    18:00 +8°C° 0 mm 1 mps 616 mmHg 60%
    19:00 +6°C° 0 mm 1 mps 615 mmHg 66%
    20:00 +6°C° 0 mm 1 mps 615 mmHg 65%
    21:00 +5°C° 0 mm 1 mps 615 mmHg 65%
    22:00 +4°C° 0 mm 2 mps 614 mmHg 65%
    23:00 +4°C° 0 mm 2 mps 614 mmHg 63%
    Show more